DLH2281 LFKB-EDDM

Flight info

Callsign DLH2281
Flight time N/A
Altitude 34000
Route MOULE L146 ELB DCT BETMU DCT BORMI DCT NAXAV DCT BEXOR DCT SOTOV T101 BETOS BETOS1B
Aircraft A320/M-SDE3FGHIRWY/LB1

Departure

Time N/A
Airport Bastia-Poretta International airport (LFKB)

Arrival

Time 2026-05-03 20:43
Airport Munich Airport (EDDM)
Time Latitude Longitude Altitude Speed Heading
2026-05-03 20:15 46.15882 11.21027 34237 ft 428 kts 11°
2026-05-03 20:15 46.21675 11.22605 34244 ft 420 kts 357°
2026-05-03 20:16 46.27530 11.22572 34250 ft 420 kts 356°
2026-05-03 20:16 46.33371 11.22421 34240 ft 420 kts 355°
2026-05-03 20:17 46.39229 11.22261 34051 ft 421 kts 356°
2026-05-03 20:17 46.45096 11.22125 34050 ft 422 kts 356°
2026-05-03 20:18 46.50953 11.21993 34046 ft 421 kts 356°
2026-05-03 20:18 46.56817 11.21862 34057 ft 422 kts 356°
2026-05-03 20:19 46.60747 11.21775 34069 ft 422 kts 356°
2026-05-03 20:19 46.68571 11.21615 34094 ft 423 kts 356°
2026-05-03 20:20 46.74458 11.21490 34105 ft 423 kts 356°
2026-05-03 20:20 46.80346 11.21369 34108 ft 423 kts 356°
2026-05-03 20:21 46.86197 11.21231 34101 ft 424 kts 356°
2026-05-03 20:21 46.92093 11.21095 34080 ft 424 kts 357°
2026-05-03 20:22 46.97998 11.21490 34064 ft 426 kts
2026-05-03 20:22 47.03911 11.22216 34045 ft 427 kts
2026-05-03 20:23 47.09828 11.22932 34029 ft 427 kts
2026-05-03 20:23 47.15757 11.23648 34018 ft 428 kts
2026-05-03 20:24 47.21697 11.24381 34017 ft 429 kts
2026-05-03 20:24 47.25671 11.24875 34013 ft 429 kts
2026-05-03 20:25 47.33599 11.25844 34010 ft 430 kts
2026-05-03 20:25 47.39531 11.26578 34012 ft 432 kts
2026-05-03 20:26 47.45639 11.27332 34019 ft 446 kts
2026-05-03 20:26 47.51850 11.28093 34015 ft 449 kts
2026-05-03 20:27 47.58078 11.28865 34004 ft 449 kts
2026-05-03 20:27 47.64307 11.29644 34011 ft 449 kts
2026-05-03 20:28 47.70538 11.30427 34009 ft 449 kts
2026-05-03 20:28 47.76764 11.31216 34017 ft 449 kts
2026-05-03 20:28 47.79895 11.31607 33214 ft 455 kts
2026-05-03 20:29 47.83077 11.31998 32142 ft 463 kts
2026-05-03 20:29 47.86308 11.32402 31120 ft 468 kts
2026-05-03 20:29 47.89563 11.32811 30139 ft 472 kts
2026-05-03 20:29 47.92841 11.33225 29022 ft 475 kts
2026-05-03 20:30 47.96103 11.33638 27948 ft 477 kts
2026-05-03 20:30 47.99404 11.34055 26989 ft 476 kts
2026-05-03 20:30 48.02706 11.34484 25980 ft 477 kts
2026-05-03 20:30 48.05942 11.35551 25004 ft 479 kts 18°
2026-05-03 20:31 48.08937 11.37718 24063 ft 480 kts 32°
2026-05-03 20:31 48.11594 11.40722 23062 ft 479 kts 38°
2026-05-03 20:31 48.14187 11.43836 21984 ft 478 kts 38°
2026-05-03 20:31 48.16779 11.46962 20987 ft 476 kts 38°
2026-05-03 20:32 48.17648 11.48014 20740 ft 474 kts 38°
2026-05-03 20:32 48.21706 11.53394 19503 ft 465 kts 51°
2026-05-03 20:32 48.23411 11.57463 18771 ft 459 kts 66°
2026-05-03 20:32 48.24332 11.61998 18040 ft 452 kts 82°
2026-05-03 20:33 48.24717 11.66599 17237 ft 435 kts 85°
2026-05-03 20:33 48.25060 11.71014 16465 ft 416 kts 85°
2026-05-03 20:33 48.25382 11.75189 15715 ft 401 kts 85°
2026-05-03 20:33 48.25695 11.79271 14982 ft 388 kts 86°
2026-05-03 20:34 48.25998 11.83227 14263 ft 377 kts 86°
2026-05-03 20:34 48.26293 11.87091 13522 ft 367 kts 86°
2026-05-03 20:34 48.26580 11.90847 12736 ft 357 kts 86°
2026-05-03 20:34 48.26858 11.94502 11970 ft 348 kts 85°
2026-05-03 20:35 48.27126 11.98072 11218 ft 340 kts 85°
2026-05-03 20:35 48.27386 12.01551 10619 ft 329 kts 85°
2026-05-03 20:35 48.27631 12.04826 10449 ft 305 kts 85°
2026-05-03 20:35 48.27711 12.05887 10335 ft 300 kts 85°
2026-05-03 20:36 48.28082 12.10929 9510 ft 287 kts 85°
2026-05-03 20:36 48.28298 12.13884 8872 ft 285 kts 84°
2026-05-03 20:36 48.28679 12.16754 8447 ft 278 kts 69°
2026-05-03 20:36 48.29679 12.19155 7998 ft 270 kts 46°
2026-05-03 20:37 48.31192 12.20787 7397 ft 268 kts 22°
2026-05-03 20:37 48.32994 12.21354 6834 ft 265 kts 358°
2026-05-03 20:37 48.34740 12.20736 6479 ft 254 kts 332°
2026-05-03 20:37 48.36005 12.19275 6305 ft 245 kts 310°
2026-05-03 20:38 48.36837 12.17101 6102 ft 238 kts 288°
2026-05-03 20:38 48.37039 12.14738 5849 ft 235 kts 266°
2026-05-03 20:38 48.36865 12.12304 5560 ft 234 kts 264°
2026-05-03 20:38 48.36683 12.09878 5263 ft 234 kts 264°
2026-05-03 20:39 48.36503 12.07450 4958 ft 234 kts 265°
2026-05-03 20:39 48.36324 12.05032 4648 ft 229 kts 265°
2026-05-03 20:39 48.36265 12.04235 4551 ft 226 kts 265°
2026-05-03 20:39 48.35983 12.00443 4071 ft 214 kts 265°
2026-05-03 20:40 48.35820 11.98260 3803 ft 206 kts 265°
2026-05-03 20:40 48.35665 11.96182 3556 ft 196 kts 265°
2026-05-03 20:40 48.35516 11.94203 3294 ft 184 kts 265°
2026-05-03 20:40 48.35378 11.92371 3073 ft 168 kts 266°
2026-05-03 20:41 48.35252 11.90699 2869 ft 152 kts 266°
2026-05-03 20:41 48.35138 11.89185 2668 ft 141 kts 266°
2026-05-03 20:41 48.35030 11.87752 2483 ft 136 kts 267°
2026-05-03 20:41 48.34921 11.86331 2293 ft 138 kts 265°
2026-05-03 20:42 48.34812 11.84901 2116 ft 138 kts 265°
2026-05-03 20:42 48.34700 11.83468 1906 ft 138 kts 264°
2026-05-03 20:42 48.34594 11.82033 1745 ft 138 kts 263°
2026-05-03 20:42 48.34487 11.80596 1550 ft 138 kts 264°
2026-05-03 20:43 48.34386 11.79234 1485 ft 114 kts 264°
2026-05-03 20:43 48.34359 11.78879 1480 ft 97 kts 263°
2026-05-03 20:43 48.34337 11.77928 1473 ft 30 kts 285°
2026-05-03 20:43 48.34401 11.77698 1481 ft 23 kts 293°
2026-05-03 20:44 48.34454 11.77515 1475 ft 16 kts 295°
2026-05-03 20:44 48.34526 11.77535 1482 ft 14 kts 76°
2026-05-03 20:44 48.34537 11.77671 1481 ft 12 kts 83°
2026-05-03 20:44 48.34546 11.77787 1481 ft 11 kts 84°
2026-05-03 20:45 48.34555 11.77903 1475 ft 14 kts 83°
2026-05-03 20:45 48.34567 11.78061 1475 ft 15 kts 83°
2026-05-03 20:45 48.34579 11.78209 1485 ft 16 kts 83°
2026-05-03 20:45 48.34596 11.78433 1475 ft 24 kts 83°
2026-05-03 20:46 48.34616 11.78688 1485 ft 25 kts 83°
2026-05-03 20:46 48.34636 11.78961 1478 ft 27 kts 83°
2026-05-03 20:46 48.34658 11.79240 1485 ft 28 kts 83°
2026-05-03 20:46 48.34676 11.79477 1485 ft 15 kts 83°
2026-05-03 20:47 48.34736 11.79552 1485 ft 12 kts 359°
2026-05-03 20:47 48.34819 11.79558 1485 ft 12 kts
2026-05-03 20:47 48.34907 11.79549 1486 ft 13 kts 353°
2026-05-03 20:47 48.35008 11.79531 1483 ft 15 kts 353°
2026-05-03 20:48 48.35070 11.79503 1473 ft 5 kts 294°
2026-05-03 20:48 48.35065 11.79461 1478 ft 3 kts 257°
2026-05-03 20:48 48.35063 11.79435 1478 ft 4 kts 263°
2026-05-03 20:48 48.35059 11.79384 1476 ft 3 kts 263°
2026-05-03 20:49 48.35058 11.79380 1485 ft 0 kts 263°